WC4R Weather Reports


time (UTC)temp
F
wind
direction
speed
knots
gust
knots
rain 1hr
in
rain 24hr
in
rain mn
in
humidity
%
barometer
mb
20260505122005 64 239 0.0 6.1 0.00 0.00 0.00 73 1014.5
20260505120005 63 225 0.0 1.7 0.00 0.00 0.00 76 1014.5
20260505115004 62 0 0.0 0.9 0.00 0.00 0.00 77 1014.5
20260505113005 61 0 0.0 4.3 0.00 0.00 0.00 78 1014.5
20260505112003 61 0 0.0 0.0 0.00 0.00 0.00 79 1013.0
20260505111003 60 0 0.0 0.0 0.00 0.00 0.00 79 1013.0
20260505102004 60 0 0.0 2.6 0.00 0.00 0.00 79 1013.0
20260505100005 60 0 0.0 0.0 0.00 0.00 0.00 79 1013.0
20260505094004 60 0 0.0 0.0 0.00 0.00 0.00 78 1013.0
20260505093004 61 0 0.0 0.0 0.00 0.00 0.00 78 1013.0
20260505092003 61 0 0.0 0.0 0.00 0.00 0.00 78 1013.0
20260505091004 61 0 0.0 0.0 0.00 0.00 0.00 78 1013.0
20260505090005 61 0 0.0 0.0 0.00 0.00 0.00 77 1013.0
20260505085005 61 0 0.0 0.0 0.00 0.00 0.00 76 1013.0
20260505084004 61 0 0.0 0.0 0.00 0.00 0.00 76 1013.0
20260505082004 62 0 0.0 0.0 0.00 0.00 0.00 75 1013.0
20260505081004 62 0 0.0 0.0 0.00 0.00 0.00 75 1013.0
20260505080004 62 0 0.0 0.0 0.00 0.00 0.00 75 1013.0
20260505075004 62 0 0.0 0.0 0.00 0.00 0.00 75 1013.0
20260505074004 62 0 0.0 0.0 0.00 0.00 0.00 75 1013.0
20260505073004 63 0 0.0 2.6 0.00 0.00 0.00 75 1013.1
20260505072003 63 0 0.0 1.7 0.00 0.00 0.00 74 1013.1
20260505071003 63 0 0.0 0.0 0.00 0.00 0.00 74 1013.1
20260505070005 63 0 0.0 0.0 0.00 0.00 0.00 73 1013.1
20260505065003 63 0 0.0 1.7 0.00 0.00 0.00 73 1013.1
20260505064004 63 0 0.0 0.0 0.00 0.00 0.00 74 1013.1
20260505063005 63 0 0.0 7.0 0.00 0.00 0.00 74 1013.1
20260505061005 63 0 0.0 5.2 0.00 0.00 0.00 75 1013.1
20260505060004 64 0 0.0 4.3 0.00 0.00 0.00 74 1013.1
20260505055003 64 0 0.0 0.9 0.00 0.00 0.00 75 1013.1
20260505054003 64 0 0.0 2.6 0.00 0.00 0.00 74 1013.1
20260505052003 64 0 0.0 5.2 0.00 0.00 0.00 74 1013.1
20260505051004 65 0 0.0 0.9 0.00 0.00 0.00 73 1013.1
20260505041003 65 0 0.9 7.0 0.00 0.00 0.00 74 1012.9
20260505035004 65 0 0.0 4.3 0.00 0.00 0.00 74 1012.9
20260505034004 65 0 0.0 0.0 0.00 0.00 0.00 73 1012.9
20260505033003 65 8 0.0 0.0 0.00 0.00 0.00 73 1012.7
20260505031004 65 0 0.0 0.9 0.00 0.00 0.00 72 1012.7
20260505025004 65 0 0.0 2.6 0.00 0.00 0.00 71 1011.2
20260505024004 65 0 0.0 4.3 0.00 0.00 0.00 71 1011.2
20260505023004 65 0 0.0 0.0 0.00 0.00 0.00 69 1011.2
20260505020005 65 4 0.0 0.0 0.00 0.00 0.00 63 1011.2
20260505014004 65 0 0.0 0.0 0.00 0.00 0.00 63 1011.2
20260505013004 66 0 0.0 0.0 0.00 0.00 0.00 62 1011.2
20260505012003 66 0 0.0 0.0 0.00 0.00 0.00 61 1011.2
20260505005004 68 0 0.0 0.0 0.00 0.00 0.00 57 1011.2
20260505003004 69 0 0.0 0.0 0.00 0.00 0.00 55 1011.2
20260505002004 70 0 0.0 0.0 0.00 0.00 0.00 55 1011.2
20260505001003 70 178 0.0 0.0 0.00 0.00 0.00 54 1011.2
20260504235005 72 282 0.0 0.0 0.00 0.00 0.00 54 1011.2
20260504234004 72 282 0.0 0.0 0.00 0.00 0.00 53 1011.0
20260504232003 73 232 0.0 0.0 0.00 0.00 0.00 48 1011.2
20260504231004 74 250 0.0 0.0 0.00 0.00 0.00 48 1011.1
20260504230005 74 258 0.0 0.0 0.00 0.00 0.00 47 1011.1
20260504225004 74 218 0.0 1.7 0.00 0.00 0.00 48 1011.1
20260504224003 75 269 0.0 0.0 0.00 0.00 0.00 46 1011.1
20260504223004 75 233 0.0 1.7 0.00 0.00 0.00 44 1010.9
20260504222004 75 332 0.0 0.9 0.00 0.00 0.00 45 1010.9
20260504221003 75 295 0.0 0.0 0.00 0.00 0.00 46 1010.9
20260504220005 76 198 0.0 4.3 0.00 0.00 0.00 43 1010.9
20260504214004 76 223 0.0 5.2 0.00 0.00 0.00 43 1010.9
20260504213004 76 287 0.0 4.3 0.00 0.00 0.00 45 1010.9
20260504212004 77 204 0.0 0.9 0.00 0.00 0.00 40 1010.8
20260504211004 78 215 0.0 2.6 0.00 0.00 0.00 43 1010.8
20260504210004 79 0 0.9 7.0 0.00 0.00 0.00 40 1010.8
20260504205003 79 0 0.9 5.2 0.00 0.00 0.00 41 1010.8
20260504203004 79 123 0.0 2.6 0.00 0.00 0.00 41 1011.1
20260504202004 78 95 0.0 4.3 0.00 0.00 0.00 41 1011.1
20260504200004 79 274 0.0 2.6 0.00 0.00 0.00 39 1012.1
20260504195005 79 167 0.0 4.3 0.00 0.00 0.00 37 1012.1
20260504194004 79 245 0.9 6.1 0.00 0.00 0.00 41 1012.1
20260504193004 78 325 0.0 1.7 0.00 0.00 0.00 44 1012.1
20260504192003 77 202 0.0 1.7 0.00 0.00 0.00 41 1012.1
20260504191003 77 290 0.0 0.0 0.00 0.00 0.00 41 1013.0
20260504190004 77 115 0.0 0.0 0.00 0.00 0.00 39 1013.0
20260504185004 75 0 0.0 0.0 0.00 0.00 0.00 40 1013.0
20260504184004 76 0 0.0 2.6 0.00 0.00 0.00 36 1013.0
20260504183004 77 166 0.0 2.6 0.00 0.00 0.00 41 1013.0
20260504182004 76 112 0.0 0.0 0.00 0.00 0.00 47 1013.0
20260504181004 76 0 0.0 1.7 0.00 0.00 0.00 44 1013.0
20260504180004 76 0 0.0 1.7 0.00 0.00 0.00 42 1014.0
20260504175003 76 0 0.9 2.6 0.00 0.00 0.00 42 1014.0
20260504174003 76 0 0.0 0.0 0.00 0.00 0.00 46 1014.0
20260504173004 77 0 0.0 2.6 0.00 0.00 0.00 44 1014.0
20260504172004 77 0 0.0 1.7 0.00 0.00 0.00 41 1014.0
20260504171004 76 0 0.0 2.6 0.00 0.00 0.00 43 1014.0
20260504141004 67 0 0.0 1.7 0.00 0.00 0.00 61 1015.1